User: anonymous   Login
Location: Drayton Valley
(53.2170°N, 114.9830°W)
Time: 08:01:08
(UTC-07:00)
Language:

MOZ.5/SAFIR/RUBIN 5/SL-8 - Orbit

View from above orbital plane
View from above orbital plane
View from above satellite
View from above satellite

Ground track
Ground track

The orbit data is extracted from the following two-line orbital elements,

1 28898U 05043G   17018.52697219  .00000067  00000-0  23215-4 0  9995
2 28898  97.9028 174.9857 0018634 300.2975  59.6382 14.60158065597999
Epoch (UTC): 18 January 2017 12:38:50
Eccentricity: 0.0018634
inclination: 97.9028°
perigee height: 679 km
apogee height: 706 km
right ascension of ascending node: 174.9857°
argument of perigee: 300.2975°
revolutions per day: 14.60158065
mean anomaly at epoch: 59.6382°
orbit number at epoch: 59799

The dashed part of the orbit path shows where the satellite is in the earth's shadow,  

DLR